Weather History for KLAL - May, 2013

Change the Weather History Date:

Tuesday, May 21, 2013

  Actual Average Record
Temperature  
Mean Temperature 76 °F -  
Max Temperature 84 °F 87 °F 96 °F (2011)
Min Temperature 68 °F 66 °F 55 °F (1994)
Cooling Degree Days 11    
Growing Degree Days 26 (Base 50)    
Moisture  
Dew Point 66 °F    
Average Humidity 85    
Maximum Humidity 94    
Minimum Humidity 48    
Precipitation  
Precipitation 0.00 in - - ()
Sea Level Pressure  
Sea Level Pressure 30.00 in    
Wind  
Wind Speed 3 mph (East)    
Max Wind Speed 20 mph    
Max Gust Speed 25 mph    
Visibility 11 miles    
Events Rain    
Averages and records for this station are not official NWS values.
T = Trace of Precipitation, MM = Missing Value Source: NWS Daily Summary

Daily Weather History Graph

Daily Weather History Graph

Search for Another Location

Airport or City:

Trip Planner

Search our weather history database for the weather conditions in past years. The results will help you decide how hot, cold, wet, or windy it might be!

Date:

Astronomy

May. 21, 2013 Rise Set
Actual Time 6:35 AM EDT 8:14 PM EDT
Civil Twilight 6:09 AM EDT 8:40 PM EDT
Nautical Twilight 5:38 AM EDT 9:11 PM EDT
Astronomical Twilight 5:05 AM EDT 9:43 PM EDT
Moon 4:43 PM EDT (5/21) 3:42 AM EDT (5/21)
Length of Visible Light 14h 30m
Length of Day
13h 39m
Waxing Gibbous, 84% of the Moon is Illuminated
May 21
Waxing Gibbous
May 25
Full
May 31
Last Quarter
Jun 8
New
Jun 16
First Quarter

Hourly Weather History & Observations

Time (EDT) Temp. Heat Index Dew Point Humidity Pressure Visibility Wind Dir Wind Speed Gust Speed Precip Events Conditions
12:15 AM 68.0 °F - 64.4 °F 88% 30.03 in 10.0 mi Calm Calm - N/A   Clear
12:35 AM 68.0 °F - 64.4 °F 88% 30.03 in 10.0 mi ESE 5.8 mph - N/A   Clear
12:55 AM 68.0 °F - 64.4 °F 88% 30.04 in 10.0 mi Calm Calm - N/A   Clear
1:15 AM 68.0 °F - 64.4 °F 88% 30.03 in 10.0 mi East 5.8 mph - N/A   Clear
1:35 AM 68.0 °F - 64.4 °F 88% 30.04 in 10.0 mi ESE 3.5 mph - N/A   Scattered Clouds
1:55 AM 68.0 °F - 64.4 °F 88% 30.01 in 10.0 mi Calm Calm - N/A   Scattered Clouds
2:15 AM 68.0 °F - 64.4 °F 88% 30.01 in 10.0 mi ESE 4.6 mph - N/A   Clear
2:35 AM 68.0 °F - 64.4 °F 88% 30.00 in 10.0 mi Calm Calm - N/A   Clear
2:55 AM 68.0 °F - 66.2 °F 94% 30.00 in 10.0 mi Calm Calm - N/A   Clear
3:15 AM 68.0 °F - 66.2 °F 94% 30.00 in 10.0 mi Calm Calm - N/A   Clear
3:35 AM 68.0 °F - 66.2 °F 94% 30.00 in 10.0 mi Calm Calm - N/A   Clear
3:55 AM 68.0 °F - 66.2 °F 94% 29.99 in 10.0 mi Calm Calm - N/A   Clear
4:15 AM 68.0 °F - 64.4 °F 88% 29.99 in 7.0 mi SE 3.5 mph - N/A   Clear
4:35 AM 68.0 °F - 66.2 °F 94% 29.99 in 10.0 mi Calm Calm - N/A   Clear
4:55 AM 68.0 °F - 64.4 °F 88% 29.99 in 10.0 mi Calm Calm - N/A   Clear
5:15 AM 68.0 °F - 66.2 °F 94% 30.00 in 10.0 mi Calm Calm - N/A   Clear
5:35 AM 68.0 °F - 64.4 °F 88% 29.99 in 10.0 mi Calm Calm - N/A   Clear
5:50 AM 69.8 °F - 66.2 °F 88% 30.00 in 10.0 mi Calm Calm - N/A   Partly Cloudy
5:55 AM 68.0 °F - 66.2 °F 94% 29.99 in 10.0 mi Calm Calm - N/A   Clear
6:15 AM 68.0 °F - 66.2 °F 94% 30.00 in 10.0 mi East 3.5 mph - N/A   Clear
6:35 AM 68.0 °F - 64.4 °F 88% 30.01 in 7.0 mi ESE 3.5 mph - N/A   Clear
6:50 AM 68.0 °F - 66.2 °F 94% 30.01 in 7.0 mi East 3.5 mph - N/A   Partly Cloudy
7:50 AM 71.6 °F - 69.8 °F 94% 30.03 in 7.0 mi East 3.5 mph - N/A   Clear
8:50 AM 73.4 °F - 69.8 °F 88% 30.04 in 12.0 mi Calm Calm - N/A   Clear
9:50 AM 78.8 °F - 68.0 °F 69% 30.05 in 12.0 mi SE 4.6 mph - N/A   Mostly Cloudy
10:50 AM 80.6 °F 82.7 °F 66.2 °F 61% 30.05 in 15.0 mi SE 3.5 mph - N/A   Mostly Cloudy
11:50 AM 80.6 °F 82.7 °F 66.2 °F 61% 30.05 in 15.0 mi ESE 5.8 mph - N/A   Mostly Cloudy
12:53 PM 80.6 °F 82.7 °F 66.2 °F 61% 30.02 in 15.0 mi ESE 8.1 mph - N/A   Mostly Cloudy
1:56 PM 84.2 °F 85.0 °F 62.6 °F 48% 29.99 in 15.0 mi NE 6.9 mph - N/A   Mostly Cloudy
2:54 PM 82.4 °F 83.9 °F 64.4 °F 54% 29.98 in 15.0 mi Calm Calm - N/A   Mostly Cloudy
3:57 PM 77.0 °F - 64.4 °F 65% 29.97 in 15.0 mi East 19.6 mph 25.3 mph N/A   Overcast
4:58 PM 73.4 °F - 66.2 °F 78% 29.98 in 15.0 mi East 9.2 mph - N/A Rain Light Rain
5:55 PM 71.6 °F - 66.2 °F 83% 29.98 in 15.0 mi East 8.1 mph - N/A Rain Light Rain
6:50 PM 71.6 °F - 68.0 °F 88% 29.97 in 12.0 mi North 4.6 mph - N/A Rain Light Rain
7:50 PM 71.6 °F - 69.8 °F 94% 29.98 in 15.0 mi NNE 4.6 mph - N/A   Mostly Cloudy
8:52 PM 71.6 °F - 69.8 °F 94% 29.99 in 10.0 mi SE 5.8 mph - N/A   Mostly Cloudy
9:51 PM 71.6 °F - 68.0 °F 88% 29.98 in 10.0 mi ENE 5.8 mph - N/A   Mostly Cloudy
10:55 PM 71.6 °F - 68.0 °F 88% 29.98 in 10.0 mi ENE 4.6 mph - N/A   Overcast
11:15 PM 71.6 °F - 68.0 °F 88% 29.98 in 10.0 mi East 4.6 mph - N/A   Mostly Cloudy
11:35 PM 71.6 °F - 68.0 °F 88% 29.99 in 10.0 mi Calm Calm - N/A   Mostly Cloudy
11:55 PM 71.6 °F - 68.0 °F 88% 29.99 in 10.0 mi Calm Calm - N/A   Overcast